Ocean Scout — WDG2354 — position and weather

sailwx.info

Track history (hours):
 
Tides and Currents Weather Stations Pressure Air Temp Water Temp Dewpoint Dewpoint Depression Visibility Wind Speed Wind Dir Waves Ship Positions

Ocean Scout

Owner: Clean Seas, LLC, Carpinteria, CA. More information available from US FCC via Universal Licensing System and Coast Guard Vessel Documentation Center.

Last reported at 2014-Oct-07 15:04 UTC. Time now 2014-Oct-21 20:10 UTC.
Position N 34°14' W 119°16'.
Warning: this ship's position is 14 days out of date.

Length 20 m; draft 2 m.

Type: Pollution control. MMSI: 367514780.

Date/timePositionNaut miles runAvg speedWind from/ knotsBaromVisibWave heightAir tempDewpointWater temp
2014-Oct-07 15:04N 34°14' W 119°16'1 0.0
2014-Oct-06 23:26N 34°15' W 119°16'1517.1
2014-Oct-06 22:34N 34°18' W 119°34'1919.2
2014-Oct-06 21:34N 34°23' W 119°56'1413.7
2014-Oct-06 20:30N 34°26' W 120°13'7 7.0
2014-Oct-06 19:34N 34°25' W 120°21'0 0.1
2014-Oct-06 18:26N 34°25' W 120°21'2 1.1
2014-Oct-06 16:31N 34°27' W 120°20'1616.5
2014-Oct-06 15:33N 34°24' W 120°01'2020.5
2014-Oct-06 14:33N 34°19' W 119°37'1817.6
2014-Oct-06 13:33N 34°15' W 119°16'0 0.0
2014-Oct-05 22:20N 34°15' W 119°16'0 0.0
2014-Oct-05 08:08N 34°15' W 119°16'0 0.0
2014-Oct-05 07:20N 34°15' W 119°16'0 0.0
2014-Oct-05 02:32N 34°15' W 119°16'0 0.0
2014-Oct-05 00:26N 34°15' W 119°16'0 0.0
2014-Oct-04 23:26N 34°15' W 119°16'0 0.0
2014-Oct-04 22:32N 34°15' W 119°16'  
2014-Sep-28 15:33N 34°17' W 119°26'1312.8
2014-Sep-28 14:33N 34°21' W 119°41'3 3.2
2014-Sep-28 13:33N 34°24' W 119°42'0 0.0
2014-Sep-28 12:33N 34°24' W 119°42'0 0.0
2014-Sep-28 11:24N 34°24' W 119°42'0 0.0
2014-Sep-28 10:33N 34°24' W 119°42'0 0.0
2014-Sep-28 09:30N 34°24' W 119°42'0 0.0
2014-Sep-28 08:30N 34°24' W 119°42'0 0.0
2014-Sep-28 07:30N 34°24' W 119°42'0 0.0
2014-Sep-28 06:12N 34°24' W 119°42'0 0.0
2014-Sep-28 02:30N 34°24' W 119°42'0 0.0
2014-Sep-28 01:30N 34°24' W 119°42'0 0.0
2014-Sep-28 00:31N 34°24' W 119°42'0 0.0
2014-Sep-27 23:30N 34°24' W 119°42'0 0.0
2014-Sep-27 22:30N 34°24' W 119°42'0 0.0
2014-Sep-27 21:24N 34°24' W 119°42'0 0.0
2014-Sep-27 20:24N 34°24' W 119°42'0 0.0
2014-Sep-27 19:21N 34°24' W 119°42'0 0.0
2014-Sep-27 18:30N 34°24' W 119°42'0 0.0
2014-Sep-27 17:28N 34°24' W 119°42'0 0.0
2014-Sep-27 16:33N 34°24' W 119°42'8 8.4
2014-Sep-27 15:33N 34°23' W 119°51'  
Track history (hours):
 
Tides and Currents Weather Stations Pressure Air Temp Water Temp Dewpoint Dewpoint Depression Visibility Wind Speed Wind Dir Waves Ship Positions

Ocean Scout

Owner: Clean Seas, LLC, Carpinteria, CA. More information available from US FCC via Universal Licensing System and Coast Guard Vessel Documentation Center.

Last reported at 2014-Oct-07 15:04 UTC. Time now 2014-Oct-21 20:10 UTC.
Position N 34°14' W 119°16'.
Warning: this ship's position is 14 days out of date.

Length 20 m; draft 2 m.

Type: Pollution control. MMSI: 367514780.

Date/timePositionNaut miles runAvg speedWind from/ knotsBaromVisibWave heightAir tempDewpointWater temp
2014-Oct-07 15:04N 34°14' W 119°16'1 0.0
2014-Oct-06 23:26N 34°15' W 119°16'1517.1
2014-Oct-06 22:34N 34°18' W 119°34'1919.2
2014-Oct-06 21:34N 34°23' W 119°56'1413.7
2014-Oct-06 20:30N 34°26' W 120°13'7 7.0
2014-Oct-06 19:34N 34°25' W 120°21'0 0.1
2014-Oct-06 18:26N 34°25' W 120°21'2 1.1
2014-Oct-06 16:31N 34°27' W 120°20'1616.5
2014-Oct-06 15:33N 34°24' W 120°01'2020.5
2014-Oct-06 14:33N 34°19' W 119°37'1817.6
2014-Oct-06 13:33N 34°15' W 119°16'0 0.0
2014-Oct-05 22:20N 34°15' W 119°16'0 0.0
2014-Oct-05 08:08N 34°15' W 119°16'0 0.0
2014-Oct-05 07:20N 34°15' W 119°16'0 0.0
2014-Oct-05 02:32N 34°15' W 119°16'0 0.0
2014-Oct-05 00:26N 34°15' W 119°16'0 0.0
2014-Oct-04 23:26N 34°15' W 119°16'0 0.0
2014-Oct-04 22:32N 34°15' W 119°16'  
2014-Sep-28 15:33N 34°17' W 119°26'1312.8
2014-Sep-28 14:33N 34°21' W 119°41'3 3.2
2014-Sep-28 13:33N 34°24' W 119°42'0 0.0
2014-Sep-28 12:33N 34°24' W 119°42'0 0.0
2014-Sep-28 11:24N 34°24' W 119°42'0 0.0
2014-Sep-28 10:33N 34°24' W 119°42'0 0.0
2014-Sep-28 09:30N 34°24' W 119°42'0 0.0
2014-Sep-28 08:30N 34°24' W 119°42'0 0.0
2014-Sep-28 07:30N 34°24' W 119°42'0 0.0
2014-Sep-28 06:12N 34°24' W 119°42'0 0.0
2014-Sep-28 02:30N 34°24' W 119°42'0 0.0
2014-Sep-28 01:30N 34°24' W 119°42'0 0.0
2014-Sep-28 00:31N 34°24' W 119°42'0 0.0
2014-Sep-27 23:30N 34°24' W 119°42'0 0.0
2014-Sep-27 22:30N 34°24' W 119°42'0 0.0
2014-Sep-27 21:24N 34°24' W 119°42'0 0.0
2014-Sep-27 20:24N 34°24' W 119°42'0 0.0
2014-Sep-27 19:21N 34°24' W 119°42'0 0.0
2014-Sep-27 18:30N 34°24' W 119°42'0 0.0
2014-Sep-27 17:28N 34°24' W 119°42'0 0.0
2014-Sep-27 16:33N 34°24' W 119°42'8 8.4
2014-Sep-27 15:33N 34°23' W 119°51'  

Dump ship's entire track history